AA0RD-13 Weather Reports


Display with metric or nautical units.
time (UTC)temp
F
wind
direction
speed
MPH
gust
MPH
rain 1hr
in
rain 24hr
in
rain mn
in
humidity
%
barometer
mb
20260506113318 51 267 16.0 19.0 0.00 0.00 0.00 94 1018.0
20260506112830 51 257 15.0 17.0 0.00 0.00 0.00 94 1018.0
20260506112322 51 265 15.0 19.0 0.00 0.00 0.00 94 1018.0
20260506111831 51 259 16.0 19.0 0.00 0.00 0.00 94 1018.0
20260506111323 51 261 16.0 20.0 0.00 0.00 0.00 94 1018.0
20260506110818 51 252 16.0 20.0 0.00 0.00 0.00 94 1017.9
20260506110330 51 257 17.0 20.0 0.00 0.00 0.00 94 1017.8
20260506105820 51 259 16.0 19.0 0.00 0.00 0.00 94 1017.8
20260506105332 51 255 16.0 21.0 0.00 0.00 0.00 94 1017.7
20260506104825 51 261 18.0 26.0 0.00 0.00 0.00 94 1017.8
20260506104316 51 263 20.0 26.0 0.00 0.00 0.00 94 1017.8
20260506103828 51 262 17.0 21.0 0.00 0.00 0.00 94 1017.5
20260506103339 51 257 18.0 23.0 0.00 0.00 0.00 94 1017.5
20260506102827 51 263 16.0 23.0 0.00 0.00 0.00 94 1017.3
20260506102318 51 264 17.0 20.0 0.00 0.00 0.00 94 1017.3
20260506101828 51 263 17.0 20.0 0.00 0.00 0.00 94 1017.3
20260506101324 51 269 15.0 21.0 0.00 0.00 0.00 94 1017.2
20260506100814 51 267 17.0 21.0 0.00 0.00 0.00 94 1017.0
20260506100347 51 261 17.0 21.0 0.00 0.00 0.00 94 1017.1
20260506095817 51 261 16.0 21.0 0.00 0.00 0.00 94 1017.2
20260506095329 51 265 18.0 21.0 0.00 0.00 0.00 95 1017.0
20260506094820 51 250 18.0 21.0 0.00 0.00 0.00 95 1017.1
20260506094331 51 256 16.0 20.0 0.00 0.00 0.00 95 1017.2
20260506093821 51 250 16.0 20.0 0.00 0.00 0.00 95 1017.3
20260506093352 51 247 14.0 18.0 0.00 0.00 0.00 95 1017.3
20260506092822 51 246 15.0 17.0 0.00 0.00 0.00 95 1017.3
20260506092318 51 241 14.0 17.0 0.00 0.00 0.00 95 1017.1
20260506091830 51 239 15.0 17.0 0.00 0.00 0.00 95 1017.2
20260506091320 51 239 12.0 18.0 0.00 0.00 0.00 95 1017.1
20260506090831 51 239 15.0 18.0 0.00 0.00 0.00 95 1017.1
20260506090321 51 254 15.0 18.0 0.00 0.00 0.00 95 1017.1
20260506085832 51 250 14.0 18.0 0.00 0.00 0.00 95 1017.2
20260506085342 51 254 14.0 18.0 0.00 0.00 0.00 95 1017.2
20260506084831 51 244 14.0 17.0 0.00 0.00 0.00 96 1017.1
20260506084321 51 241 14.0 19.0 0.00 0.00 0.00 95 1017.0
20260506083833 51 250 14.0 18.0 0.00 0.00 0.00 96 1017.0
20260506083344 51 249 14.0 20.0 0.00 0.00 0.00 96 1016.9
20260506082815 51 246 15.0 20.0 0.00 0.00 0.00 96 1017.0
20260506082347 51 248 16.0 20.0 0.00 0.00 0.00 96 1017.0
20260506081822 51 250 18.0 22.0 0.00 0.00 0.00 96 1016.9
20260506081314 51 242 17.0 22.0 0.00 0.00 0.00 96 1016.9
20260506080826 51 254 17.0 20.0 0.00 0.00 0.00 96 1016.9
20260506080317 51 246 17.0 21.0 0.00 0.00 0.00 96 1016.9
20260506073330 51 254 18.0 22.0 0.00 0.00 0.00 96 1016.5
20260506072821 51 248 17.0 23.0 0.00 0.00 0.00 96 1016.5
20260506072334 51 244 18.0 23.0 0.00 0.00 0.00 96 1016.4
20260506071826 51 252 18.0 24.0 0.00 0.00 0.00 96 1016.4
20260506071317 51 263 18.0 25.0 0.00 0.00 0.00 96 1016.3
20260506070830 51 252 19.0 25.0 0.00 0.00 0.00 96 1016.3
20260506070321 51 252 19.0 23.0 0.00 0.00 0.00 96 1016.4
20260506062315 51 241 17.0 20.0 0.00 0.00 0.00 96 1016.1
20260506061827 51 245 17.0 20.0 0.00 0.00 0.00 96 1016.1
20260506061322 51 249 16.0 20.0 0.00 0.00 0.00 96 1016.1
20260506060814 51 242 16.0 20.0 0.00 0.00 0.00 96 1016.2
20260506060325 51 245 16.0 19.0 0.00 0.00 0.00 96 1016.2
20260506051322 51 246 17.0 22.0 0.00 0.00 0.00 95 1016.0
20260506050833 51 238 16.0 22.0 0.00 0.00 0.00 95 1016.0
20260506050324 51 234 17.0 22.0 0.00 0.00 0.00 95 1016.1
20260506044820 51 242 18.0 22.0 0.00 0.00 0.00 95 1015.9
20260506044331 51 246 18.0 22.0 0.00 0.00 0.00 95 1015.9
20260506043822 51 250 18.0 23.0 0.00 0.00 0.00 95 1015.9
20260506043333 52 242 19.0 23.0 0.00 0.00 0.00 95 1015.8
20260506042826 52 252 19.0 23.0 0.00 0.00 0.00 95 1015.6
20260506042317 52 248 19.0 23.0 0.00 0.00 0.00 95 1015.5
20260506041829 52 259 18.0 23.0 0.00 0.00 0.00 95 1015.4
20260506041321 52 246 18.0 23.0 0.00 0.00 0.00 95 1015.3
20260506040815 52 244 18.0 23.0 0.00 0.00 0.00 94 1015.0
20260506040327 52 248 19.0 23.0 0.00 0.00 0.00 94 1015.1
20260506035819 52 235 18.0 22.0 0.00 0.00 0.00 94 1014.9
20260506035332 52 250 17.0 22.0 0.00 0.00 0.00 94 1014.9
20260506034843 52 250 18.0 20.0 0.00 0.00 0.00 94 1014.9
20260506034334 52 246 17.0 20.0 0.00 0.00 0.00 94 1014.9
20260506033825 52 248 16.0 20.0 0.00 0.00 0.00 94 1014.7
20260506033316 52 246 16.0 20.0 0.00 0.00 0.00 94 1014.8
20260506032828 52 242 16.0 21.0 0.00 0.00 0.00 94 1014.8
20260506032324 52 247 16.0 21.0 0.00 0.00 0.00 93 1014.7
20260506031814 52 241 16.0 21.0 0.00 0.00 0.00 94 1014.8
20260506031326 52 264 17.0 21.0 0.00 0.00 0.00 93 1014.8
20260506030817 52 248 17.0 21.0 0.00 0.00 0.00 93 1014.7
20260506030330 52 252 16.0 22.0 0.00 0.00 0.00 93 1014.8
20260506025819 52 251 17.0 22.0 0.00 0.00 0.00 93 1014.8
20260506025331 52 252 18.0 21.0 0.00 0.00 0.00 93 1014.7
20260506024822 52 242 17.0 22.0 0.00 0.00 0.00 93 1014.9
20260506024335 53 252 17.0 22.0 0.00 0.00 0.00 93 1014.9
20260506023825 53 238 17.0 22.0 0.00 0.00 0.00 93 1014.9
20260506023320 53 248 19.0 23.0 0.00 0.00 0.00 93 1014.9
20260506022832 53 247 17.0 21.0 0.00 0.00 0.00 93 1014.8
20260506022324 53 260 18.0 23.0 0.00 0.00 0.00 92 1014.8
20260506021816 53 250 18.0 25.0 0.00 0.00 0.00 92 1014.8
20260506021328 53 246 19.0 25.0 0.00 0.00 0.00 92 1014.8
20260506020819 53 253 18.0 24.0 0.00 0.00 0.00 92 1014.8
20260506020330 53 248 18.0 23.0 0.00 0.00 0.00 92 1014.8
20260506015821 53 241 17.0 24.0 0.00 0.00 0.00 91 1014.8
20260506015318 53 254 18.0 24.0 0.00 0.00 0.00 92 1014.8
20260506014850 53 257 17.0 21.0 0.00 0.00 0.00 92 1014.9
20260506014339 53 251 16.0 21.0 0.00 0.00 0.00 92 1014.9
20260506013830 53 248 17.0 21.0 0.00 0.00 0.00 92 1014.9
20260506013322 53 241 17.0 20.0 0.00 0.00 0.00 92 1014.9
20260506012834 53 242 17.0 20.0 0.00 0.00 0.00 92 1015.0
20260506012344 53 248 17.0 21.0 0.00 0.00 0.00 92 1015.0
20260506011835 53 246 17.0 21.0 0.00 0.00 0.00 91 1014.9
20260506011346 54 248 16.0 19.0 0.00 0.00 0.00 91 1014.9
20260506010834 54 238 16.0 19.0 0.00 0.00 0.00 91 1014.9
20260506010324 54 244 15.0 19.0 0.00 0.00 0.00 91 1015.0
20260506005834 54 229 14.0 18.0 0.00 0.00 0.00 91 1015.0
20260506005324 54 246 13.0 18.0 0.00 0.00 0.00 91 1015.0
20260506004819 54 251 13.0 17.0 0.00 0.00 0.00 91 1015.0
20260506004330 54 237 14.0 18.0 0.00 0.00 0.00 91 1015.0
20260506003822 54 245 13.0 17.0 0.00 0.00 0.00 91 1014.9
20260506003332 54 251 14.0 17.0 0.00 0.00 0.00 91 1014.9
20260506002844 54 251 15.0 17.0 0.00 0.00 0.00 91 1015.1
20260506002315 54 240 14.0 17.0 0.00 0.00 0.00 91 1015.1
20260506001826 54 244 14.0 19.0 0.00 0.00 0.00 91 1015.1
20260506001317 54 250 15.0 19.0 0.00 0.00 0.00 90 1015.0
20260506000848 54 263 14.0 17.0 0.00 0.00 0.00 90 1015.0
20260506000317 54 246 14.0 17.0 0.00 0.00 0.00 90 1015.1
20260505235828 54 238 14.0 17.0 0.00 0.00 0.00 90 1015.2
20260505235325 55 250 12.0 15.0 0.00 0.00 0.00 89 1015.3
20260505234816 55 252 12.0 15.0 0.00 0.00 0.00 89 1015.4
20260505234350 55 267 10.0 12.0 0.00 0.00 0.00 89 1015.3
20260505233821 56 236 10.0 14.0 0.00 0.00 0.00 88 1015.4
20260505233332 56 236 10.0 14.0 0.00 0.00 0.00 88 1015.4
20260505232824 56 255 9.0 14.0 0.00 0.00 0.00 88 1015.3
20260505232315 56 247 8.0 10.0 0.00 0.00 0.00 88 1015.5
20260505231827 56 248 9.0 11.0 0.00 0.00 0.00 88 1015.6
20260505231316 56 240 9.0 10.0 0.00 0.00 0.00 87 1015.8
20260505230828 56 255 8.0 11.0 0.00 0.00 0.00 88 1015.8
20260505230322 56 244 9.0 11.0 0.00 0.00 0.00 87 1015.8
20260505225833 57 255 7.0 10.0 0.00 0.00 0.00 88 1015.9
20260505225344 56 246 8.0 10.0 0.00 0.00 0.00 88 1015.9
20260505224855 56 245 7.0 10.0 0.00 0.00 0.00 89 1015.9
20260505224325 56 261 7.0 9.0 0.00 0.00 0.00 89 1016.0
20260505223816 56 245 7.0 9.0 0.00 0.00 0.00 89 1016.0
20260505223327 56 245 5.0 8.0 0.00 0.00 0.00 90 1016.0
20260505222818 56 265 4.0 6.0 0.00 0.00 0.00 90 1016.1
20260505222328 56 274 4.0 7.0 0.00 0.00 0.00 90 1016.0
20260505221820 56 281 6.0 8.0 0.00 0.00 0.00 90 1016.1
20260505221316 56 257 6.0 8.0 0.00 0.00 0.00 91 1016.1
20260505220827 56 256 6.0 8.0 0.00 0.00 0.00 91 1016.2
20260505220317 55 261 6.0 8.0 0.00 0.00 0.00 92 1016.3
20260505215828 55 280 6.0 8.0 0.00 0.00 0.00 92 1016.4
20260505215319 55 270 6.0 8.0 0.00 0.00 0.00 93 1016.3
20260505214829 54 279 6.0 7.0 0.00 0.00 0.00 94 1016.3
20260505214321 54 282 6.0 7.0 0.00 0.00 0.00 94 1016.4
20260505213833 54 276 6.0 8.0 0.00 0.00 0.00 94 1016.4
20260505213323 54 281 6.0 8.0 0.00 0.00 0.00 94 1016.6
20260505212840 54 276 7.0 8.0 0.00 0.00 0.00 93 1016.6
20260505212329 54 279 6.0 8.0 0.00 0.00 0.00 94 1016.5
20260505211819 54 288 7.0 8.0 0.00 0.00 0.00 94 1016.5
20260505211332 54 287 6.0 8.0 0.00 0.00 0.00 94 1016.5
20260505210822 54 288 7.0 9.0 0.00 0.00 0.00 94 1016.6
20260505210314 53 294 7.0 9.0 0.00 0.00 0.00 94 1016.5
20260505205825 54 285 8.0 9.0 0.00 0.00 0.00 94 1016.5
20260505205317 54 273 7.0 8.0 0.00 0.00 0.00 94 1016.5
20260505204829 54 268 6.0 7.0 0.00 0.00 0.00 94 1016.5
20260505204325 54 282 5.0 8.0 0.00 0.00 0.00 94 1016.4
20260505203817 54 285 6.0 9.0 0.00 0.00 0.00 94 1016.5
20260505203328 54 275 8.0 9.0 0.00 0.00 0.00 93 1016.5
20260505202821 54 286 7.0 9.0 0.00 0.00 0.00 93 1016.5
20260505202332 54 279 8.0 9.0 0.00 0.00 0.00 93 1016.5
20260505201823 54 269 7.0 9.0 0.00 0.00 0.00 93 1016.5
20260505201315 54 263 6.0 8.0 0.00 0.00 0.00 93 1016.5
20260505200826 54 275 5.0 6.0 0.00 0.00 0.00 93 1016.6
20260505200322 55 283 4.0 6.0 0.00 0.00 0.00 93 1016.5
20260505195833 54 281 4.0 6.0 0.00 0.00 0.00 93 1016.6
20260505195325 54 287 4.0 6.0 0.00 0.00 0.00 93 1016.5
20260505194817 54 267 3.0 6.0 0.00 0.00 0.00 94 1016.5
20260505194328 54 277 4.0 6.0 0.00 0.00 0.00 93 1016.5
20260505193818 54 271 4.0 6.0 0.00 0.00 0.00 94 1016.5
20260505193329 54 261 4.0 5.0 0.00 0.00 0.00 94 1016.5
20260505192839 54 275 3.0 7.0 0.00 0.00 0.00 94 1016.5
20260505192329 54 269 4.0 7.0 0.00 0.00 0.00 94 1016.4
20260505191821 54 269 4.0 7.0 0.00 0.00 0.00 95 1016.4
20260505191317 53 268 4.0 7.0 0.00 0.00 0.00 95 1016.5
20260505190829 53 267 4.0 7.0 0.00 0.00 0.00 95 1016.4
20260505190320 53 264 5.0 6.0 0.00 0.00 0.00 95 1016.4
20260505185852 53 266 4.0 6.0 0.00 0.00 0.00 95 1016.3
20260505185322 53 265 3.0 6.0 0.00 0.00 0.00 95 1016.4
20260505184814 53 271 4.0 6.0 0.00 0.00 0.00 95 1016.4
20260505184326 53 263 3.0 6.0 0.00 0.00 0.00 95 1016.4
20260505183836 52 276 4.0 6.0 0.00 0.00 0.00 95 1016.4
20260505183327 53 272 5.0 7.0 0.00 0.00 0.00 95 1016.4
20260505182821 52 290 4.0 8.0 0.00 0.00 0.00 95 1016.4
20260505182333 52 292 6.0 8.0 0.00 0.00 0.00 95 1016.4
20260505181824 52 290 7.0 8.0 0.00 0.00 0.00 95 1016.3
20260505181316 53 284 5.0 9.0 0.00 0.00 0.00 95 1016.2
20260505180827 52 295 7.0 9.0 0.00 0.00 0.00 95 1016.3
20260505180319 52 308 6.0 9.0 0.00 0.00 0.00 95 1016.2
20260505175830 53 291 7.0 9.0 0.00 0.00 0.00 96 1016.3
20260505175322 52 279 5.0 8.0 0.00 0.00 0.00 96 1016.2
20260505174818 52 296 6.0 8.0 0.00 0.00 0.00 96 1016.1
20260505174329 52 292 3.0 7.0 0.00 0.00 0.00 96 1016.1
20260505173821 52 293 4.0 7.0 0.00 0.00 0.00 97 1016.0
20260505173329 52 275 3.0 4.0 0.00 0.00 0.00 97 1016.1
20260505172821 52 275 3.0 6.0 0.00 0.00 0.00 97 1016.0
20260505172332 52 275 3.0 6.0 0.00 0.00 0.00 97 1016.0
20260505171845 52 275 3.0 4.0 0.00 0.00 0.00 97 1015.9
20260505171314 52 275 2.0 4.0 0.00 0.00 0.00 97 1015.9
20260505170847 52 275 2.0 4.0 0.00 0.00 0.00 97 1016.0
20260505170317 52 275 2.0 3.0 0.00 0.00 0.00 97 1016.0
20260505165849 52 275 2.0 4.0 0.00 0.00 0.00 98 1015.8
20260505165323 52 275 2.0 4.0 0.00 0.00 0.00 98 1015.9
20260505164815 52 275 3.0 4.0 0.00 0.00 0.00 98 1016.0
20260505164327 51 275 2.0 4.0 0.00 0.00 0.00 98 1016.0
20260505163818 51 275 3.0 4.0 0.00 0.00 0.00 98 1016.0
20260505163350 51 275 3.0 6.0 0.00 0.00 0.00 98 1015.9
20260505162820 51 275 5.0 6.0 0.00 0.00 0.00 98 1016.0
20260505162332 51 275 5.0 6.0 0.00 0.00 0.00 98 1015.9
20260505161824 51 275 3.0 4.0 0.00 0.00 0.00 98 1015.9
20260505161336 51 275 3.0 4.0 0.00 0.00 0.00 98 1015.9
20260505160825 51 275 3.0 4.0 0.00 0.00 0.00 98 1015.8
20260505160320 51 275 3.0 6.0 0.00 0.00 0.00 98 1015.8
20260505153332 51 254 4.0 5.0 0.00 0.00 0.00 97 1015.7
20260505152823 51 254 4.0 7.0 0.00 0.00 0.00 97 1015.6
20260505152319 51 254 4.0 7.0 0.00 0.00 0.00 97 1015.5
20260505151831 51 254 3.0 5.0 0.00 0.00 0.00 97 1015.5
20260505151323 51 254 4.0 8.0 0.00 0.00 0.00 97 1015.5
20260505150854 51 254 5.0 8.0 0.00 0.00 0.00 97 1015.4
20260505150325 51 254 7.0 9.0 0.00 0.00 0.00 97 1015.4
20260505140348 52 265 9.0 10.0 0.00 0.00 0.00 96 1014.7
20260505124850 52 246 9.0 14.0 0.00 0.00 0.00 96 1013.9
20260505124321 52 247 11.0 14.0 0.00 0.00 0.00 96 1014.0
20260505123833 52 255 12.0 14.0 0.00 0.00 0.00 96 1014.0
20260505123324 52 263 12.0 15.0 0.00 0.00 0.00 96 1013.9
20260505122817 52 261 11.0 15.0 0.00 0.00 0.00 96 1014.0
20260505122329 52 253 11.0 15.0 0.00 0.00 0.00 96 1014.0
20260505121821 52 248 11.0 14.0 0.00 0.00 0.00 96 1013.9
20260505121317 52 243 11.0 16.0 0.00 0.00 0.00 96 1013.8
20260505120829 52 245 11.0 16.0 0.00 0.00 0.00 96 1013.8
20260505120320 52 250 11.0 15.0 0.00 0.00 0.00 96 1013.8
20260505115832 52 247 11.0 15.0 0.00 0.00 0.00 96 1013.8
20260505115323 52 259 12.0 15.0 0.00 0.00 0.00 96 1013.7
20260505114814 52 225 9.0 12.0 0.00 0.00 0.00 97 1013.7
20260505114325 52 210 7.0 10.0 0.00 0.00 0.00 97 1013.7
20260505113815 52 229 7.0 11.0 0.00 0.00 0.00 97 1013.5